| time (UTC) | temp C | wind direction | speed KPH | gust KPH | rain 1hr cm | rain 24hr cm | rain mn cm | humidity % | barometer mb |
| 20260831053203 | 19 | 360 | 0.0 | 0.0 | 0.00 | 0.18 | 0.05 | 94 | 1018.7 |
| 20260831052203 | 19 | 360 | 0.0 | 0.0 | 0.00 | 0.18 | 0.05 | 94 | 1018.7 |
| 20260831051202 | 19 | 360 | 0.0 | 0.0 | 0.00 | 0.18 | 0.05 | 94 | 1018.8 |
| 20260831050204 | 19 | 360 | 0.0 | 0.0 | 0.00 | 0.18 | 0.05 | 94 | 1018.8 |
| 20260831045202 | 19 | 360 | 0.0 | 0.0 | 0.05 | 0.18 | 0.05 | 94 | 1018.7 |
| 20260831044203 | 19 | 360 | 0.0 | 0.0 | 0.05 | 0.18 | 0.05 | 94 | 1018.8 |
| 20260831043202 | 19 | 360 | 0.0 | 0.0 | 0.05 | 0.18 | 0.05 | 94 | 1018.9 |
| 20260831042203 | 19 | 360 | 0.0 | 0.0 | 0.03 | 0.15 | 0.03 | 94 | 1018.7 |
| 20260831041202 | 18 | 360 | 0.0 | 0.0 | 0.00 | 0.13 | 0.00 | 94 | 1018.8 |
| 20260831040203 | 18 | 360 | 0.0 | 0.0 | 0.00 | 0.13 | 0.00 | 94 | 1018.9 |
| 20260831035202 | 18 | 360 | 0.0 | 0.0 | 0.00 | 0.13 | 0.13 | 94 | 1018.9 |
| 20260831034203 | 18 | 360 | 0.0 | 0.0 | 0.00 | 0.13 | 0.13 | 94 | 1018.9 |
| 20260831033223 | 18 | 360 | 0.0 | 0.0 | 0.00 | 0.13 | 0.13 | 94 | 1018.9 |
| 20260831031203 | 18 | 360 | 0.0 | 0.0 | 0.00 | 0.13 | 0.13 | 94 | 1018.9 |
| 20260831030203 | 18 | 359 | 0.0 | 1.6 | 0.00 | 0.13 | 0.13 | 94 | 1019.0 |
| 20260831025202 | 18 | 360 | 0.0 | 0.0 | 0.00 | 0.13 | 0.13 | 94 | 1019.1 |
| 20260831024224 | 18 | 360 | 0.0 | 0.0 | 0.00 | 0.13 | 0.13 | 94 | 1019.3 |
| 20260831023202 | 18 | 360 | 0.0 | 0.0 | 0.00 | 0.13 | 0.13 | 94 | 1019.0 |
| 20260831022204 | 18 | 360 | 0.0 | 0.0 | 0.00 | 0.13 | 0.13 | 93 | 1019.0 |
| 20260831021224 | 18 | 360 | 0.0 | 0.0 | 0.00 | 0.13 | 0.13 | 93 | 1019.0 |
| 20260831020203 | 18 | 360 | 0.0 | 0.0 | 0.00 | 0.13 | 0.13 | 93 | 1019.1 |
| 20260831015203 | 18 | 360 | 0.0 | 1.6 | 0.00 | 0.13 | 0.13 | 93 | 1019.1 |
| 20260831014202 | 18 | 360 | 0.0 | 0.0 | 0.00 | 0.13 | 0.13 | 93 | 1019.2 |
| 20260831013202 | 18 | 360 | 0.0 | 0.0 | 0.00 | 0.13 | 0.13 | 93 | 1019.1 |
| 20260831012227 | 18 | 360 | 0.0 | 0.0 | 0.00 | 0.13 | 0.13 | 93 | 1019.2 |
| 20260831011202 | 18 | 360 | 0.0 | 0.0 | 0.00 | 0.13 | 0.13 | 93 | 1019.1 |
| 20260831010225 | 18 | 360 | 0.0 | 0.0 | 0.00 | 0.13 | 0.13 | 93 | 1019.1 |
| 20260831005202 | 18 | 360 | 0.0 | 0.0 | 0.00 | 0.13 | 0.13 | 93 | 1019.0 |
| 20260831004223 | 18 | 360 | 0.0 | 0.0 | 0.00 | 0.13 | 0.13 | 93 | 1018.8 |
| 20260831003203 | 18 | 360 | 0.0 | 0.0 | 0.00 | 0.13 | 0.13 | 93 | 1018.7 |
| 20260831002202 | 18 | 360 | 0.0 | 0.0 | 0.00 | 0.13 | 0.13 | 93 | 1018.6 |
| 20260831001224 | 18 | 360 | 0.0 | 0.0 | 0.00 | 0.13 | 0.13 | 92 | 1018.5 |
| 20260831000204 | 18 | 360 | 0.0 | 0.0 | 0.00 | 0.13 | 0.13 | 92 | 1018.5 |
| 20260830235223 | 18 | 360 | 0.0 | 0.0 | 0.03 | 0.13 | 0.13 | 92 | 1018.6 |
| 20260830234203 | 18 | 360 | 0.0 | 0.0 | 0.03 | 0.13 | 0.13 | 92 | 1018.5 |
| 20260830233202 | 18 | 360 | 0.0 | 0.0 | 0.03 | 0.13 | 0.13 | 92 | 1018.5 |
| 20260830232203 | 18 | 360 | 0.0 | 1.6 | 0.00 | 0.10 | 0.10 | 91 | 1018.4 |
| 20260830231205 | 18 | 360 | 0.0 | 0.0 | 0.00 | 0.10 | 0.10 | 91 | 1018.4 |
| 20260830225202 | 18 | 360 | 0.0 | 0.0 | 0.05 | 0.10 | 0.10 | 90 | 1018.5 |
| 20260830224204 | 18 | 360 | 0.0 | 0.0 | 0.03 | 0.08 | 0.08 | 90 | 1018.6 |
| 20260830223224 | 18 | 360 | 0.0 | 3.2 | 0.03 | 0.08 | 0.08 | 90 | 1018.6 |
| 20260830222203 | 18 | 360 | 0.0 | 3.2 | 0.03 | 0.08 | 0.08 | 90 | 1018.6 |
| 20260830221202 | 18 | 360 | 0.0 | 1.6 | 0.00 | 0.05 | 0.05 | 90 | 1018.6 |
| 20260830220202 | 18 | 360 | 0.0 | 1.6 | 0.00 | 0.05 | 0.05 | 90 | 1018.6 |
| 20260830215204 | 18 | 359 | 0.0 | 3.2 | 0.00 | 0.05 | 0.05 | 90 | 1018.6 |
| 20260830214202 | 18 | 360 | 0.0 | 3.2 | 0.00 | 0.05 | 0.05 | 90 | 1018.4 |
| 20260830213203 | 18 | 359 | 1.6 | 6.4 | 0.00 | 0.05 | 0.05 | 90 | 1018.4 |
| 20260830212203 | 18 | 360 | 0.0 | 0.0 | 0.00 | 0.05 | 0.05 | 90 | 1018.4 |
| 20260830211202 | 18 | 360 | 0.0 | 0.0 | 0.00 | 0.05 | 0.05 | 89 | 1018.4 |
| 20260830210203 | 18 | 360 | 0.0 | 0.0 | 0.00 | 0.05 | 0.05 | 89 | 1018.5 |
| 20260830205202 | 18 | 360 | 0.0 | 0.0 | 0.00 | 0.05 | 0.05 | 89 | 1018.5 |
| 20260830204204 | 18 | 360 | 0.0 | 3.2 | 0.00 | 0.05 | 0.05 | 89 | 1018.6 |
| 20260830203202 | 18 | 360 | 0.0 | 4.8 | 0.00 | 0.05 | 0.05 | 89 | 1018.7 |
| 20260830202202 | 18 | 359 | 0.0 | 3.2 | 0.00 | 0.05 | 0.05 | 89 | 1018.7 |
| 20260830201224 | 18 | 359 | 0.0 | 4.8 | 0.00 | 0.05 | 0.05 | 89 | 1018.7 |
| 20260830200203 | 18 | 357 | 1.6 | 6.4 | 0.00 | 0.05 | 0.05 | 90 | 1018.8 |
| 20260830195204 | 19 | 359 | 1.6 | 9.7 | 0.03 | 0.05 | 0.05 | 90 | 1018.9 |
| 20260830194202 | 19 | 359 | 3.2 | 8.0 | 0.03 | 0.05 | 0.05 | 90 | 1018.8 |
| 20260830193204 | 19 | 359 | 0.0 | 12.9 | 0.03 | 0.05 | 0.05 | 90 | 1019.0 |
| 20260830192202 | 19 | 359 | 3.2 | 14.5 | 0.03 | 0.05 | 0.05 | 90 | 1019.1 |
| 20260830191203 | 19 | 359 | 8.0 | 14.5 | 0.03 | 0.05 | 0.05 | 90 | 1018.9 |
| 20260830190203 | 19 | 359 | 6.4 | 17.7 | 0.00 | 0.03 | 0.03 | 90 | 1018.9 |
| 20260830185202 | 19 | 359 | 3.2 | 12.9 | 0.00 | 0.03 | 0.03 | 90 | 1018.9 |
| 20260830184203 | 19 | 359 | 3.2 | 17.7 | 0.00 | 0.03 | 0.03 | 89 | 1019.1 |
| 20260830183204 | 20 | 359 | 6.4 | 22.5 | 0.00 | 0.03 | 0.03 | 89 | 1019.2 |
| 20260830182204 | 20 | 359 | 4.8 | 20.9 | 0.00 | 0.03 | 0.03 | 89 | 1019.5 |
| 20260830181202 | 20 | 359 | 9.7 | 19.3 | 0.00 | 0.03 | 0.03 | 90 | 1019.5 |
| 20260830180204 | 20 | 359 | 0.0 | 8.0 | 0.00 | 0.03 | 0.03 | 90 | 1019.3 |
| 20260830175202 | 20 | 359 | 0.0 | 3.2 | 0.00 | 0.03 | 0.03 | 90 | 1019.3 |
| 20260830174223 | 20 | 360 | 0.0 | 1.6 | 0.00 | 0.03 | 0.03 | 90 | 1019.2 |
| 20260830173203 | 20 | 360 | 0.0 | 0.0 | 0.00 | 0.03 | 0.03 | 90 | 1019.1 |
| 20260830172202 | 20 | 360 | 0.0 | 4.8 | 0.00 | 0.03 | 0.03 | 90 | 1019.1 |
| 20260830171224 | 20 | 359 | 0.0 | 1.6 | 0.00 | 0.03 | 0.03 | 90 | 1019.0 |
| 20260830170202 | 20 | 359 | 0.0 | 1.6 | 0.00 | 0.03 | 0.03 | 90 | 1019.0 |
| 20260830165226 | 20 | 360 | 0.0 | 1.6 | 0.00 | 0.03 | 0.03 | 90 | 1019.1 |
| 20260830164203 | 20 | 360 | 0.0 | 1.6 | 0.00 | 0.03 | 0.03 | 90 | 1019.1 |
| 20260830163223 | 20 | 360 | 0.0 | 3.2 | 0.00 | 0.03 | 0.03 | 91 | 1019.1 |
| 20260830162223 | 20 | 360 | 0.0 | 0.0 | 0.00 | 0.03 | 0.03 | 90 | 1019.0 |
| 20260830161203 | 20 | 360 | 0.0 | 0.0 | 0.00 | 0.03 | 0.03 | 90 | 1019.2 |
| 20260830160202 | 20 | 360 | 0.0 | 0.0 | 0.00 | 0.03 | 0.03 | 90 | 1019.3 |
| 20260830155225 | 20 | 360 | 0.0 | 0.0 | 0.03 | 0.03 | 0.03 | 89 | 1019.4 |
| 20260830154203 | 20 | 359 | 0.0 | 3.2 | 0.03 | 0.03 | 0.03 | 89 | 1019.6 |
| 20260830153202 | 20 | 360 | 0.0 | 6.4 | 0.03 | 0.03 | 0.03 | 88 | 1019.6 |
| 20260830152203 | 20 | 357 | 4.8 | 8.0 | 0.00 | 0.00 | 0.00 | 88 | 1019.7 |
| 20260830151224 | 20 | 359 | 4.8 | 9.7 | 0.00 | 0.00 | 0.00 | 87 | 1019.7 |
| 20260830150202 | 20 | 348 | 1.6 | 14.5 | 0.00 | 0.00 | 0.00 | 86 | 1019.4 |
| 20260830145203 | 20 | 359 | 4.8 | 9.7 | 0.00 | 0.00 | 0.00 | 86 | 1019.2 |
| 20260830144202 | 20 | 351 | 3.2 | 6.4 | 0.00 | 0.00 | 0.00 | 87 | 1019.1 |
| 20260830143202 | 20 | 359 | 3.2 | 6.4 | 0.00 | 0.00 | 0.00 | 87 | 1019.0 |
| 20260830142203 | 20 | 360 | 0.0 | 0.0 | 0.00 | 0.00 | 0.00 | 86 | 1018.8 |
| 20260830141202 | 19 | 360 | 0.0 | 0.0 | 0.00 | 0.00 | 0.00 | 86 | 1018.8 |
| 20260830135245 | 19 | 360 | 0.0 | 0.0 | 0.00 | 0.00 | 0.00 | 86 | 1018.7 |
| 20260830133204 | 19 | 360 | 0.0 | 0.0 | 0.00 | 0.00 | 0.00 | 85 | 1018.6 |
| 20260830132202 | 18 | 360 | 0.0 | 0.0 | 0.00 | 0.00 | 0.00 | 85 | 1018.6 |
| 20260830131205 | 18 | 360 | 0.0 | 0.0 | 0.00 | 0.00 | 0.00 | 85 | 1018.4 |
| 20260830130202 | 18 | 360 | 0.0 | 0.0 | 0.00 | 0.00 | 0.00 | 85 | 1018.2 |
| 20260830125202 | 18 | 360 | 0.0 | 1.6 | 0.00 | 0.00 | 0.00 | 85 | 1018.4 |
| 20260830124202 | 18 | 360 | 0.0 | 1.6 | 0.00 | 0.00 | 0.00 | 85 | 1018.6 |
| 20260830123203 | 18 | 359 | 0.0 | 4.8 | 0.00 | 0.00 | 0.00 | 84 | 1018.8 |
| 20260830122203 | 18 | 360 | 0.0 | 0.0 | 0.00 | 0.00 | 0.00 | 84 | 1018.5 |
| 20260830121202 | 18 | 360 | 0.0 | 0.0 | 0.00 | 0.00 | 0.00 | 85 | 1018.3 |
| 20260830120203 | 18 | 360 | 0.0 | 0.0 | 0.00 | 0.00 | 0.00 | 85 | 1018.5 |
| 20260830115202 | 18 | 360 | 0.0 | 0.0 | 0.00 | 0.00 | 0.00 | 86 | 1018.7 |
| 20260830114202 | 18 | 360 | 0.0 | 0.0 | 0.00 | 0.00 | 0.00 | 85 | 1018.5 |
| 20260830113202 | 18 | 360 | 0.0 | 0.0 | 0.00 | 0.00 | 0.00 | 85 | 1018.4 |
| 20260830112203 | 17 | 360 | 0.0 | 0.0 | 0.00 | 0.00 | 0.00 | 85 | 1018.5 |
| 20260830111202 | 17 | 360 | 0.0 | 0.0 | 0.00 | 0.00 | 0.00 | 85 | 1018.5 |
| 20260830110202 | 17 | 360 | 0.0 | 0.0 | 0.00 | 0.00 | 0.00 | 85 | 1018.6 |
| 20260830105202 | 17 | 360 | 0.0 | 0.0 | 0.00 | 0.00 | 0.00 | 85 | 1018.6 |
| 20260830103203 | 18 | 360 | 0.0 | 0.0 | 0.00 | 0.00 | 0.00 | 85 | 1018.6 |
| 20260830101226 | 18 | 360 | 0.0 | 0.0 | 0.00 | 0.00 | 0.00 | 85 | 1018.5 |
| 20260830100202 | 18 | 360 | 0.0 | 0.0 | 0.00 | 0.00 | 0.00 | 84 | 1018.6 |
| 20260830095203 | 17 | 360 | 0.0 | 0.0 | 0.00 | 0.00 | 0.00 | 84 | 1018.5 |
| 20260830094202 | 17 | 360 | 0.0 | 0.0 | 0.00 | 0.00 | 0.00 | 84 | 1018.5 |
| 20260830093226 | 17 | 360 | 0.0 | 0.0 | 0.00 | 0.00 | 0.00 | 84 | 1018.5 |
| 20260830092224 | 17 | 360 | 0.0 | 0.0 | 0.00 | 0.00 | 0.00 | 85 | 1018.5 |
| 20260830091203 | 17 | 360 | 0.0 | 0.0 | 0.00 | 0.00 | 0.00 | 85 | 1018.4 |
| 20260830090205 | 17 | 360 | 0.0 | 0.0 | 0.00 | 0.00 | 0.00 | 85 | 1018.4 |
| 20260830085203 | 17 | 360 | 0.0 | 0.0 | 0.00 | 0.00 | 0.00 | 85 | 1018.5 |
| 20260830084202 | 17 | 360 | 0.0 | 0.0 | 0.00 | 0.00 | 0.00 | 86 | 1018.7 |
| 20260830083204 | 17 | 360 | 0.0 | 0.0 | 0.00 | 0.00 | 0.00 | 86 | 1018.7 |
| 20260830082202 | 17 | 360 | 0.0 | 0.0 | 0.00 | 0.00 | 0.00 | 86 | 1018.9 |
| 20260830081203 | 17 | 360 | 0.0 | 0.0 | 0.00 | 0.00 | 0.00 | 86 | 1019.0 |
| 20260830080202 | 17 | 360 | 0.0 | 0.0 | 0.00 | 0.00 | 0.00 | 86 | 1019.0 |
| 20260830075203 | 17 | 360 | 0.0 | 0.0 | 0.00 | 0.00 | 0.00 | 85 | 1019.1 |
| 20260830074202 | 17 | 360 | 0.0 | 0.0 | 0.00 | 0.00 | 0.00 | 85 | 1019.1 |
| 20260830073203 | 17 | 360 | 0.0 | 0.0 | 0.00 | 0.00 | 0.00 | 85 | 1019.1 |
| 20260830072202 | 17 | 360 | 0.0 | 0.0 | 0.00 | 0.00 | 0.00 | 85 | 1019.1 |
| 20260830071202 | 17 | 360 | 0.0 | 0.0 | 0.00 | 0.00 | 0.00 | 84 | 1019.2 |
| 20260830070202 | 17 | 360 | 0.0 | 0.0 | 0.00 | 0.00 | 0.00 | 84 | 1019.2 |
| 20260830065202 | 17 | 360 | 0.0 | 0.0 | 0.00 | 0.00 | 0.00 | 83 | 1019.2 |
| 20260830064202 | 17 | 360 | 0.0 | 0.0 | 0.00 | 0.00 | 0.00 | 83 | 1019.1 |
| 20260830063202 | 17 | 360 | 0.0 | 0.0 | 0.00 | 0.00 | 0.00 | 82 | 1019.3 |
| 20260830062202 | 17 | 360 | 0.0 | 0.0 | 0.00 | 0.00 | 0.00 | 82 | 1019.3 |
| 20260830061202 | 17 | 360 | 0.0 | 0.0 | 0.00 | 0.00 | 0.00 | 82 | 1019.3 |
| 20260830060203 | 17 | 360 | 0.0 | 0.0 | 0.00 | 0.00 | 0.00 | 82 | 1019.3 |
| 20260830055202 | 17 | 360 | 0.0 | 0.0 | 0.00 | 0.00 | 0.00 | 82 | 1019.4 |
| 20260830054203 | 17 | 360 | 0.0 | 0.0 | 0.00 | 0.00 | 0.00 | 82 | 1019.3 |